Wind_Speed
46 45 43 41 39 39 39 37 35 33 31 29 27 26 25 26 26 28 29 30 28 27 27 23 20 19 19 18 15 13 12 13 12 13 13 17 23 10 4 16 13 13 16 10 10 7 3 3 4 3 2 2 2 1 1 2 1 1 2 3 2 3 3 4 6 6 3 2 3 1 2 6 3 1 1 2 4 2 2 3 3 3 4 3 6 4 14 28
46 46 44 43 41 39 39 38 37 35 33 30 28 26 25 26 26 27 28 30 29 27 28 25 22 17 16 18 15 15 12 12 11 12 21 20 18 14 8 16 16 14 16 12 12 10 7 4 4 3 2 1 2 2 1 1 1 2 3 2 4 5 4 5 5 5 2 2 3 1 3 6 4 3 1 1 2 1 3 1 4 3 5 4 1 8 21 26
46 47 45 44 42 39 38 38 37 36 34 31 29 27 26 25 25 26 27 28 29 29 28 26 26 19 15 16 14 15 13 9 6 10 25 22 15 16 12 16 19 15 14 12 11 11 10 10 10 6 3 1 1 2 2 1 1 2 4 2 6 5 4 4 5 4 4 2 4 1 2 4 2 2 1 3 4 2 4 4 1 2 5 2 3 13 22 23
45 47 47 45 43 40 37 37 38 36 35 33 30 28 26 25 25 26 26 26 26 28 29 28 29 23 18 15 13 15 12 4 4 12 25 25 19 18 13 16 18 15 13 9 9 10 11 11 9 5 3 1 2 2 1 1 1 2 4 4 5 3 3 3 5 5 4 3 5 2 1 2 2 2 1 5 5 4 6 7 7 8 8 7 5 11 18 20
45 47 48 46 45 42 39 37 36 37 37 34 32 29 27 26 25 25 25 25 24 25 28 29 29 26 21 16 12 12 10 2 4 10 19 23 23 19 16 16 16 15 12 7 6 9 11 11 7 4 3 1 1 1 2 2 3 2 3 4 4 4 3 3 4 5 4 4 4 3 2 2 1 1 3 8 6 5 7 8 10 9 10 12 11 12 15 15
46 46 48 47 46 44 41 37 35 37 38 36 33 30 28 26 25 24 24 24 24 23 24 25 26 27 26 21 14 10 7 3 2 7 6 14 23 21 17 18 16 15 13 10 9 10 8 8 6 3 2 1 3 3 3 1 2 2 3 2 3 4 2 2 2 4 4 6 5 4 2 0 2 2 3 7 8 8 6 7 9 9 11 16 16 15 13 13
46 45 48 48 46 45 42 39 35 35 36 37 35 32 29 27 26 25 23 23 23 24 24 24 25 26 26 24 17 8 4 6 4 6 4 3 17 22 18 19 18 15 14 14 13 11 6 7 6 5 4 2 4 3 3 1 3 2 3 4 4 3 3 3 2 2 4 6 5 4 1 1 1 2 1 4 9 9 7 5 5 7 11 15 14 13 14 16
46 45 48 47 47 45 43 41 36 33 34 35 35 33 30 27 26 25 24 23 22 24 25 25 25 25 28 26 15 5 5 13 13 9 3 4 6 20 20 19 20 15 14 16 13 10 7 9 7 4 5 3 4 4 2 2 2 3 5 3 2 1 3 2 2 1 1 3 3 4 2 4 6 2 1 6 10 9 5 2 1 6 10 11 12 13 13 15
46 46 48 47 47 46 44 41 36 34 34 33 33 32 30 27 26 25 24 23 22 23 24 26 26 26 30 25 11 5 9 19 20 13 9 5 1 20 24 21 22 16 15 16 14 11 7 7 7 4 5 4 5 4 3 3 3 5 6 3 2 2 3 1 1 1 2 1 3 3 2 6 4 1 3 8 11 6 1 3 4 7 8 9 10 12 13 12
47 47 49 47 47 46 44 42 38 35 33 32 32 30 29 27 25 25 25 24 22 22 22 25 28 28 28 19 9 7 7 15 20 16 11 4 1 19 22 20 24 19 15 15 14 13 8 7 7 5 4 3 5 3 3 5 3 3 5 4 2 1 2 0 2 3 2 1 2 3 5 5 2 2 4 7 8 3 3 3 4 7 8 10 9 10 13 14
47 47 49 47 47 47 45 43 39 36 33 32 30 28 27 26 25 24 25 24 22 22 22 24 28 30 24 13 9 7 3 9 14 14 10 3 3 18 19 16 20 21 16 12 13 14 10 10 11 6 2 3 4 2 2 4 1 1 4 2 3 2 3 1 2 4 1 2 4 4 4 6 2 2 5 7 5 3 5 4 5 7 8 10 10 10 11 14
46 46 48 47 47 47 46 44 40 37 34 31 29 27 26 25 24 23 23 24 21 20 21 23 28 30 19 8 8 5 3 8 11 12 11 4 5 18 21 14 12 17 18 11 8 9 9 14 14 6 1 3 5 2 3 3 2 1 4 2 5 4 4 4 3 3 2 2 4 5 4 7 7 6 7 8 7 4 6 5 6 8 8 8 9 8 9 13
46 45 47 48 47 46 46 45 41 38 35 32 30 27 26 25 23 23 22 22 21 20 20 22 27 26 14 5 6 5 4 8 12 14 13 9 9 14 17 15 6 8 14 11 8 5 4 12 12 5 2 3 3 1 1 3 3 2 3 2 2 3 4 6 3 1 3 3 3 4 4 8 10 10 7 8 9 7 6 7 7 7 7 7 8 7 8 12
47 46 47 48 47 46 45 45 43 40 37 33 30 27 26 24 23 23 21 21 20 19 18 21 26 19 7 2 4 7 7 7 12 16 16 16 16 14 13 13 5 2 6 8 11 6 4 9 9 5 2 2 2 0 3 3 2 3 2 1 2 2 3 4 4 4 4 3 3 5 4 10 11 7 7 8 8 9 9 8 7 7 7 7 7 8 9 11
48 46 47 48 48 46 45 44 43 41 37 34 30 28 26 24 24 22 20 20 19 18 18 22 24 14 2 2 2 9 10 9 14 18 19 21 21 15 12 14 7 4 4 6 10 8 6 10 8 3 1 0 1 2 3 2 2 1 3 2 2 3 3 3 2 7 8 2 2 5 4 11 11 6 7 7 6 8 9 9 7 6 7 7 7 8 8 10
49 48 48 48 48 46 45 44 43 41 38 34 31 27 26 25 23 21 19 19 16 17 18 17 17 10 3 2 4 10 10 9 15 18 19 22 22 20 17 15 9 7 6 7 11 10 9 9 4 1 2 1 2 4 3 1 2 3 4 3 3 5 2 3 3 6 9 3 1 5 5 8 7 4 5 2 4 7 7 8 8 7 8 8 7 7 8 9
49 49 48 48 48 47 46 44 42 41 37 35 32 27 26 25 22 21 18 17 16 17 16 13 13 7 0 2 4 8 9 10 16 20 20 16 16 24 23 13 8 8 8 8 9 7 6 4 1 1 2 1 2 4 4 5 6 3 2 2 2 4 3 2 3 5 7 5 5 7 7 13 10 3 5 4 1 4 6 8 8 8 7 7 7 7 8 9
50 49 48 47 47 46 45 44 42 40 37 35 32 28 26 25 23 20 17 17 18 15 11 9 12 6 3 6 5 6 12 15 18 21 21 15 14 24 24 15 11 9 6 5 3 2 3 2 1 2 3 3 3 6 8 6 4 5 4 3 1 3 5 6 3 3 6 6 6 7 7 16 16 8 6 6 2 3 7 8 8 9 7 6 7 7 8 9
51 49 48 47 47 46 44 44 43 40 39 36 32 29 26 22 18 16 16 17 13 9 6 7 10 5 2 7 7 7 13 18 18 19 20 18 18 19 18 17 14 9 4 1 0 1 1 2 2 4 7 9 8 9 9 2 5 8 6 6 5 4 5 5 4 4 6 5 6 9 9 15 18 11 9 9 6 5 10 9 8 8 7 6 6 7 9 10
51 50 49 48 47 46 44 44 43 42 41 37 34 28 18 13 10 7 10 10 7 3 3 9 12 4 3 2 9 11 13 14 12 13 18 21 23 19 10 10 9 6 6 3 2 2 3 4 5 8 11 13 12 10 6 1 5 8 6 5 6 5 4 4 4 5 4 5 5 9 10 15 18 13 10 8 4 7 12 12 10 9 8 8 8 9 10 11
50 50 48 49 49 46 45 44 43 44 42 41 38 19 8 12 9 8 10 5 10 4 4 7 12 3 4 1 10 14 9 6 5 9 19 23 24 18 6 6 9 5 8 7 2 1 3 5 8 10 10 9 10 8 4 1 5 8 7 6 5 6 5 4 5 3 3 3 4 7 8 13 17 14 11 6 4 10 14 13 11 11 10 9 9 11 11 9
49 47 47 49 49 47 47 45 43 45 42 41 34 11 9 16 8 13 17 5 8 6 6 2 7 3 3 3 11 15 8 4 5 8 17 20 16 13 6 7 10 9 10 9 2 3 3 7 12 8 5 6 6 7 5 2 4 6 5 5 6 4 1 4 4 2 2 4 4 6 6 10 14 14 11 7 8 13 13 10 11 11 10 11 12 11 10 9
48 46 45 47 50 48 48 46 45 45 39 37 28 11 17 20 10 19 17 5 2 4 3 1 5 3 3 4 6 11 7 6 7 9 17 19 10 8 9 9 10 8 9 11 7 6 4 7 10 6 6 7 6 5 6 2 2 4 4 5 5 3 3 3 4 2 3 3 2 3 5 7 10 11 11 10 11 13 13 11 11 10 11 14 13 11 10 12
48 46 44 47 50 47 48 48 44 41 37 36 28 17 21 19 19 28 13 5 3 2 1 2 2 4 4 3 5 7 5 4 5 9 17 18 8 6 10 10 10 8 9 15 15 11 8 4 6 9 7 8 6 6 8 5 3 4 5 6 4 4 7 5 2 1 1 1 1 1 6 6 7 10 13 9 6 9 12 9 11 12 13 13 12 12 12 13
51 46 43 47 49 49 52 46 37 37 36 31 22 18 22 18 24 30 11 5 2 2 1 2 1 5 6 5 6 4 2 0 2 8 16 17 10 7 6 6 7 9 12 17 15 12 12 5 6 11 8 8 8 8 9 8 5 5 6 8 6 6 8 5 3 2 2 3 2 1 3 6 5 8 12 8 3 7 8 6 12 14 12 11 11 13 14 13
54 47 45 47 49 53 47 28 28 38 29 18 19 23 24 21 26 26 8 5 1 1 4 5 2 8 10 6 5 4 2 1 1 9 17 18 11 4 5 5 2 8 13 12 8 5 8 7 6 8 8 10 10 8 8 9 6 6 6 8 7 7 7 5 5 3 1 4 3 2 4 6 5 5 8 7 6 9 8 7 12 14 11 10 11 13 13 13
53 48 49 48 49 53 33 15 29 35 17 13 26 29 25 25 25 16 5 4 2 2 6 4 2 8 11 7 9 7 4 3 2 7 16 19 11 1 4 8 3 5 8 6 5 4 8 12 8 8 10 10 9 9 11 12 8 6 5 10 9 8 7 5 5 4 3 2 2 1 3 5 7 6 7 7 8 11 11 11 13 12 11 11 12 13 13 13
51 48 48 47 51 47 26 23 33 23 14 24 33 31 26 25 19 8 5 3 3 3 6 3 3 7 7 7 11 6 2 4 4 7 14 15 9 3 3 12 11 9 11 9 9 6 9 15 14 14 12 8 11 13 12 13 9 6 6 10 8 5 5 3 4 3 1 2 3 2 3 3 8 5 4 6 9 11 13 16 16 13 13 14 13 13 12 13
52 49 45 48 48 34 21 31 31 14 20 33 33 33 29 19 11 5 3 4 1 1 4 5 5 5 5 6 10 6 1 3 3 5 9 8 4 3 2 10 11 10 12 13 12 4 6 13 15 15 11 9 14 12 10 13 10 4 5 7 5 5 5 3 3 3 2 1 7 6 5 4 8 5 4 3 6 9 11 13 14 14 15 14 13 13 12 11
53 48 45 47 39 25 22 29 25 20 30 36 34 36 27 12 7 5 6 5 2 1 3 6 7 7 11 9 7 9 5 2 1 4 6 3 3 2 1 2 5 7 9 12 11 2 1 4 8 10 9 10 9 5 7 10 5 2 5 5 5 4 4 3 2 2 1 4 10 10 10 7 8 4 6 5 5 8 9 9 12 14 13 12 12 11 10 8
52 49 48 45 35 29 23 18 23 32 37 39 38 32 18 5 2 6 8 2 3 3 3 6 8 10 15 13 8 9 7 2 2 5 5 3 3 3 2 2 3 4 6 8 9 5 1 4 6 6 7 6 6 5 3 3 4 2 1 4 3 1 1 2 1 1 3 6 9 11 12 11 9 5 4 6 6 7 9 10 13 14 12 11 10 9 8 7
50 50 51 45 36 30 21 19 34 41 42 44 35 19 8 4 2 5 5 3 2 4 5 6 8 10 15 15 10 10 9 4 4 7 8 6 4 5 7 7 7 6 5 6 9 7 4 4 6 3 4 7 8 5 2 4 6 2 1 4 5 3 1 3 3 2 5 7 5 4 9 9 12 9 5 7 7 8 10 11 13 13 11 10 9 8 7 6
47 49 48 42 35 27 23 32 42 42 44 43 24 8 5 5 6 7 5 3 2 4 7 8 10 13 16 14 11 11 10 5 5 8 9 9 6 7 10 10 10 7 4 8 10 7 4 5 6 4 3 7 10 8 4 4 9 9 6 7 8 5 3 5 5 2 6 8 3 2 5 5 9 8 8 11 12 12 12 11 12 11 11 11 9 9 8 7
45 46 42 37 31 26 31 41 43 45 43 30 12 7 9 7 7 9 7 4 2 1 8 11 11 12 13 12 11 11 9 6 8 9 9 9 5 6 9 10 12 6 2 5 7 7 9 7 8 11 7 10 14 15 14 10 10 13 10 7 7 5 5 6 6 6 7 6 2 2 4 4 5 4 5 10 12 11 9 10 10 9 10 10 8 9 10 9
44 44 37 32 27 28 39 43 43 47 36 15 7 9 10 9 8 9 8 4 2 2 6 10 12 10 9 8 7 10 8 5 9 8 7 10 6 6 9 10 14 10 3 4 3 5 11 7 8 15 10 14 18 14 10 7 5 7 5 5 8 5 5 2 2 5 5 3 3 4 4 4 5 6 7 6 8 10 10 10 10 11 10 7 7 9 9 10
42 37 30 28 27 33 44 46 45 45 26 10 9 8 8 8 7 9 8 5 5 6 10 10 10 9 8 5 5 9 7 2 8 8 4 9 8 8 11 8 11 13 8 7 3 2 7 4 7 13 7 14 21 15 12 10 6 4 5 8 7 2 5 2 2 1 3 2 5 3 5 6 5 9 11 9 11 12 11 11 11 13 11 7 8 10 9 9
34 28 22 23 28 35 44 47 46 37 17 8 9 7 7 7 5 7 9 6 4 8 11 8 7 8 8 7 6 11 8 3 8 8 4 7 7 8 12 7 8 14 11 8 4 1 4 2 4 12 12 15 16 11 12 9 4 5 8 9 3 4 2 2 2 1 3 3 4 3 10 8 2 6 7 10 14 14 14 16 12 11 9 7 9 10 10 10
27 22 15 20 33 37 42 47 43 25 9 7 9 8 7 5 2 5 7 6 5 8 10 5 5 8 9 9 9 12 12 8 9 9 6 7 6 10 15 9 7 15 15 10 5 1 2 2 3 11 15 11 6 6 7 5 1 3 5 5 6 2 3 3 3 2 3 5 4 4 10 8 7 8 4 8 16 16 18 20 13 9 8 8 9 10 10 9
21 13 6 20 37 37 40 42 30 13 6 9 10 8 7 5 3 4 7 9 6 6 9 5 3 6 9 9 9 11 13 12 11 9 7 7 5 10 17 11 7 14 17 15 9 2 2 3 4 7 10 8 7 6 9 7 3 1 1 3 3 2 3 4 5 2 3 6 5 4 6 5 9 11 8 10 13 14 18 18 13 12 12 11 10 9 9 8
13 5 3 24 39 39 41 32 15 7 7 9 9 5 6 7 4 2 5 9 5 3 6 6 4 6 9 9 8 9 11 12 11 8 7 9 7 8 12 12 8 9 14 16 12 6 2 3 4 2 4 6 5 8 13 14 10 6 6 8 6 3 1 1 4 3 3 5 4 5 7 8 6 6 9 13 12 12 14 14 13 14 13 13 12 10 9 9
8 3 4 26 40 40 35 17 5 7 6 7 8 3 3 6 4 2 1 3 3 1 2 7 7 7 8 9 8 7 8 9 10 8 6 8 9 7 8 13 12 9 10 11 12 10 4 3 6 3 3 6 7 12 18 19 16 13 11 12 12 10 6 4 6 5 3 4 4 4 9 11 5 5 9 13 12 13 14 14 14 13 11 10 9 9 9 9
6 2 7 30 44 39 24 6 3 8 5 7 9 4 2 4 5 5 2 4 3 1 2 3 5 6 7 7 8 8 8 7 9 9 7 10 13 10 9 16 16 13 11 10 12 12 5 2 7 6 4 6 7 6 6 9 14 15 10 8 11 10 8 9 10 6 5 7 5 2 7 11 6 7 9 12 13 14 15 16 14 12 9 7 8 9 8 8
5 2 9 35 49 35 14 4 5 6 5 6 9 5 3 3 4 5 3 3 2 2 2 2 4 6 6 6 7 9 9 7 10 12 9 10 13 12 10 14 15 12 10 8 9 8 3 1 6 6 4 4 5 4 6 4 7 12 8 5 8 11 12 10 6 5 7 9 8 4 8 12 8 7 9 9 10 12 13 14 12 10 9 7 9 9 8 8
3 3 5 27 45 32 10 5 8 8 7 8 8 5 2 1 5 8 8 7 4 3 4 3 4 5 5 6 7 10 12 9 9 12 11 9 11 11 10 13 15 12 10 9 8 8 6 5 6 7 5 4 4 4 4 3 3 7 10 11 12 15 15 6 1 2 5 9 12 8 9 14 7 4 7 8 7 9 10 9 7 8 9 8 7 8 8 7
4 3 4 7 23 23 9 4 8 10 11 12 12 11 6 2 2 7 11 9 3 4 5 2 2 2 3 4 6 8 12 10 7 10 10 7 5 5 8 13 16 13 12 13 12 9 7 7 8 10 9 9 9 7 7 6 4 5 9 13 15 17 19 12 6 8 8 11 14 10 12 15 7 1 5 8 7 8 10 8 6 7 9 9 7 8 7 7
4 3 0 2 3 8 5 1 4 8 11 12 11 11 13 8 1 1 7 8 3 4 5 1 2 3 2 6 8 8 11 11 6 6 10 10 6 3 8 15 16 15 16 16 14 9 4 6 10 12 13 13 9 5 4 4 6 7 11 18 20 21 23 18 11 11 12 11 12 12 15 18 14 7 7 8 8 9 10 9 7 8 10 10 9 8 7 6
3 2 4 2 1 3 3 2 4 7 10 13 9 9 15 13 5 1 1 4 5 5 3 1 4 6 7 11 12 9 12 13 8 4 9 13 9 2 4 11 14 17 18 14 12 8 4 9 15 16 19 18 10 4 2 4 9 13 17 21 23 22 22 19 15 16 15 11 12 15 15 18 23 17 9 7 9 8 9 10 9 10 11 8 7 6 6 5
2 2 2 1 1 5 7 9 12 10 11 13 7 8 15 14 10 7 2 2 4 5 4 2 5 9 10 12 13 10 11 12 11 8 7 10 9 2 1 6 10 16 16 9 7 6 3 9 17 18 21 23 15 7 4 3 6 11 15 19 21 22 22 22 22 23 19 13 15 18 18 20 26 19 10 9 10 9 10 11 10 10 8 4 5 6 6 6
2 2 1 2 2 3 6 11 15 14 14 14 8 8 15 17 14 9 3 3 4 5 7 8 11 11 10 11 12 12 13 12 13 13 9 8 11 8 5 5 6 10 13 9 8 7 4 7 12 13 16 20 19 12 6 4 4 6 9 13 16 18 20 21 22 23 21 18 17 19 19 20 21 18 12 9 8 8 9 7 5 6 5 5 7 8 8 8
2 2 1 2 3 2 4 8 12 11 9 10 10 9 13 18 17 9 3 6 9 7 7 11 12 10 9 10 10 13 17 14 12 14 11 10 12 9 8 6 3 5 11 10 8 8 8 10 11 9 10 14 16 14 10 9 9 9 10 11 12 16 18 19 19 19 18 17 19 22 20 16 18 19 13 6 5 6 7 6 6 7 7 7 8 8 9 10
1 1 0 3 4 3 5 7 7 8 6 6 8 9 12 18 17 10 3 4 8 8 7 10 11 7 5 9 10 11 11 9 7 7 5 6 7 5 4 4 3 6 11 10 6 6 8 9 8 8 9 12 13 14 14 12 10 13 14 12 12 14 14 15 17 19 18 19 22 22 17 16 19 15 7 5 7 9 9 8 8 8 8 8 10 11 11 10
1 2 3 2 3 2 4 5 4 5 5 2 3 4 8 13 13 10 6 2 3 6 6 7 11 8 5 10 12 10 10 9 7 6 3 3 4 4 3 0 0 4 9 9 6 5 7 8 7 7 8 12 13 13 13 12 10 12 13 14 16 16 15 15 17 20 20 18 16 16 17 19 12 2 5 9 12 14 14 10 9 9 10 10 11 11 10 10
Wind_Direction
200 199 199 199 202 202 201 201 202 201 199 199 198 199 200 198 200 203 204 203 202 202 201 199 198 193 189 188 186 185 181 179 180 179 192 218 210 200 201 191 185 183 185 197 201 194 170 185 216 199 172 110 13 16 65 12 63 65 108 119 197 193 210 183 178 197 171 196 221 230 137 138 166 224 262 26 42 55 84 36 335 331 346 261 257 294 167 170
202 199 197 197 200 200 200 200 200 201 200 199 197 198 198 196 198 200 202 204 200 200 199 196 199 193 190 194 189 186 183 183 186 200 213 221 211 206 209 186 180 187 190 200 208 186 153 169 176 135 84 88 347 23 84 346 94 123 124 148 215 200 211 188 178 199 180 166 172 141 152 160 176 173 120 119 255 309 127 302 345 350 337 340 246 159 161 169
204 198 197 196 197 198 199 199 199 199 199 198 197 196 197 194 195 197 199 203 203 202 199 195 198 191 191 197 190 185 175 170 187 228 224 219 212 206 199 186 184 189 192 205 215 197 187 187 167 138 66 84 323 51 91 350 175 164 128 183 228 210 230 198 173 197 222 185 129 103 161 166 198 169 126 168 203 261 197 214 251 240 255 268 161 157 161 169
206 198 197 196 194 196 198 199 199 198 198 197 195 195 195 194 193 195 195 198 202 202 200 200 198 193 196 197 191 184 161 143 222 237 230 220 216 207 192 190 191 195 200 209 217 208 198 176 152 127 99 131 325 52 146 235 174 165 147 193 222 195 239 215 181 193 210 173 132 127 135 149 208 153 135 149 153 271 247 224 201 203 204 186 183 169 165 170
208 200 197 196 193 194 195 197 198 197 197 196 195 194 193 192 193 193 192 193 196 197 200 204 203 198 195 185 179 172 149 163 221 221 233 223 219 212 196 197 200 205 205 194 195 194 179 152 122 80 98 162 324 76 223 242 126 170 211 206 207 170 221 231 186 180 156 118 108 103 159 172 171 143 148 154 170 236 234 226 214 200 180 172 175 174 172 176
210 202 197 196 193 193 193 194 197 197 196 196 195 194 191 191 191 191 190 190 189 191 194 197 198 196 195 189 184 170 156 237 159 142 199 211 213 212 200 203 207 208 198 176 169 174 160 128 131 147 110 162 196 192 233 262 101 191 261 270 224 175 212 248 166 179 136 110 129 155 203 75 47 293 183 171 208 234 228 228 222 203 179 171 167 168 176 185
210 203 197 196 193 192 192 191 194 194 195 195 195 194 192 190 189 188 188 188 188 188 188 188 189 191 195 194 191 186 187 259 232 149 104 152 205 206 199 205 207 202 193 185 169 162 150 128 153 162 131 168 205 217 237 38 58 177 237 271 241 175 214 261 91 149 126 124 168 167 105 44 176 261 191 197 238 249 258 271 233 194 168 162 163 173 185 190
211 203 196 195 193 191 191 190 189 190 192 192 193 193 192 190 189 186 184 187 187 186 186 185 185 185 182 175 171 179 212 236 235 210 209 13 203 196 193 199 202 195 186 193 185 163 145 148 169 151 143 195 190 197 208 82 42 216 219 243 234 199 236 271 62 85 91 138 160 125 123 234 212 198 323 245 257 262 265 317 125 148 150 164 176 186 191 194
209 203 195 194 192 189 189 188 186 187 188 187 187 188 190 191 188 185 183 184 186 186 184 184 185 184 176 163 149 175 212 224 229 221 222 319 246 186 189 192 194 190 183 196 198 176 152 158 180 167 162 183 169 181 191 168 234 220 198 187 176 241 256 263 200 235 347 203 136 121 248 263 225 182 280 250 251 261 75 88 129 142 159 186 190 192 195 198
207 202 193 193 191 187 186 184 184 184 184 183 182 182 185 188 187 184 182 182 184 185 184 185 186 182 173 158 150 190 206 209 217 220 217 292 182 178 185 192 190 184 179 192 195 180 172 173 166 150 144 151 160 164 173 182 217 201 171 179 187 259 293 95 218 253 332 256 178 165 253 279 271 211 254 260 256 237 110 114 156 163 183 199 200 200 200 203
205 201 191 190 189 186 183 182 182 183 183 182 179 178 180 183 185 183 181 182 182 183 185 188 187 180 171 163 174 194 176 179 209 218 206 259 181 175 182 188 187 183 176 181 192 188 188 172 144 123 135 158 155 134 213 194 148 162 152 201 271 338 327 289 231 257 301 251 185 154 260 287 311 221 222 252 263 163 155 174 173 187 203 205 207 207 202 210
204 200 191 188 188 184 181 180 180 182 183 181 176 176 178 180 183 182 183 182 181 184 186 192 191 179 167 178 200 195 141 175 206 215 204 220 165 173 186 183 179 186 181 170 177 187 192 176 147 116 231 162 143 139 233 190 102 108 128 183 272 320 300 241 226 243 180 217 175 135 300 279 245 233 212 230 243 185 168 187 194 207 216 214 216 215 211 217
200 198 190 186 187 184 181 178 179 181 182 181 177 175 178 179 180 182 183 182 184 185 185 194 193 179 165 189 210 199 171 182 204 208 199 198 164 158 178 184 182 192 188 177 159 135 155 175 154 107 31 117 151 204 144 103 92 130 129 158 252 316 277 225 195 153 164 206 161 134 285 261 242 242 217 218 232 226 218 214 213 216 220 223 222 221 224 221
196 196 189 185 186 184 182 179 178 180 179 179 176 177 180 178 178 180 181 181 183 184 184 192 190 181 177 198 184 186 184 179 192 190 183 187 173 143 145 168 180 180 179 175 161 138 114 153 139 101 59 100 164 3 45 49 75 136 157 179 174 202 253 220 176 149 179 233 125 126 259 261 257 255 232 227 221 224 234 231 223 222 225 227 224 224 231 226
193 193 187 184 185 183 182 179 177 177 177 176 174 177 181 179 179 178 178 178 178 182 180 181 180 168 162 273 203 179 172 165 174 175 175 177 168 150 140 141 114 69 125 148 156 145 123 136 129 120 146 32 125 104 71 21 6 154 189 193 177 197 263 285 202 170 190 255 81 140 236 268 270 262 239 227 203 214 234 241 234 231 233 231 229 227 233 236
191 191 187 184 184 182 181 177 175 175 173 172 171 176 180 179 179 174 176 175 170 179 174 166 168 154 139 232 190 175 166 164 174 170 169 171 162 158 160 142 95 59 97 122 145 133 111 122 125 146 123 82 162 130 99 67 283 243 207 184 177 185 226 298 281 213 197 185 227 206 234 266 277 279 262 234 174 205 231 253 251 241 240 235 232 228 229 238
189 189 185 183 183 182 180 176 173 172 169 168 168 171 176 176 175 171 174 174 167 171 169 156 155 151 303 201 163 172 171 173 176 168 164 169 161 152 150 138 83 65 77 97 132 125 88 85 67 165 109 105 173 135 149 208 219 220 179 165 201 175 180 225 276 257 203 186 220 217 236 252 256 291 319 343 120 198 234 257 261 251 243 237 237 237 233 232
187 187 184 182 181 180 179 175 172 169 166 165 166 169 171 167 166 167 162 156 149 144 150 149 147 154 259 215 189 164 171 179 175 169 166 169 167 150 143 138 115 89 58 53 102 94 43 44 81 172 167 181 183 177 196 212 189 175 166 169 184 174 193 204 227 237 190 191 224 216 241 256 258 260 270 279 232 211 249 250 257 258 252 245 240 240 238 234
183 184 183 180 180 178 177 173 169 166 163 162 161 161 160 153 150 157 151 144 142 135 147 162 160 171 237 197 179 151 169 177 171 167 162 161 162 146 134 138 132 112 91 46 152 128 112 123 143 176 190 199 200 198 208 208 133 163 180 184 178 187 216 215 231 244 182 175 223 221 234 254 259 254 241 253 250 257 266 259 259 263 262 252 238 237 237 236
181 183 181 178 178 177 175 171 168 165 162 157 152 147 149 147 138 153 152 154 189 189 137 178 181 162 29 144 156 150 160 163 159 159 159 160 151 134 119 129 123 109 129 156 204 159 164 190 200 201 200 199 197 200 220 260 142 155 172 195 190 196 232 223 231 258 191 177 229 221 229 250 259 260 246 244 253 266 264 260 259 256 258 250 237 237 234 236
180 183 179 176 175 174 172 169 167 164 162 158 153 146 156 165 156 170 162 173 214 196 48 191 185 134 20 83 141 141 136 135 143 147 156 159 146 138 148 147 139 154 160 156 153 150 174 209 217 210 199 188 186 190 201 201 164 163 174 196 205 206 230 229 224 257 204 197 252 227 228 252 259 263 257 239 228 251 251 251 256 248 249 250 241 238 234 240
179 181 176 173 172 171 169 168 166 164 161 159 159 160 177 173 169 171 161 142 214 213 8 191 171 107 42 95 135 142 127 120 157 155 155 158 157 160 172 164 168 179 164 143 149 239 209 224 224 202 151 145 164 179 183 191 183 180 173 185 211 208 248 271 246 252 200 203 254 245 236 255 262 266 263 243 230 249 249 239 245 243 244 249 244 241 236 242
175 177 175 171 169 168 167 166 165 162 159 162 167 174 176 177 163 156 151 79 180 213 355 133 156 128 94 101 153 157 147 154 168 172 163 162 174 174 160 174 183 170 155 154 186 225 230 235 217 165 129 151 158 183 196 230 220 195 173 179 209 170 154 249 255 219 204 197 218 264 268 263 270 278 271 246 232 251 256 243 245 241 237 245 246 247 240 237
173 173 174 170 165 166 165 163 162 162 164 168 173 172 169 173 156 150 138 43 148 187 215 195 145 146 136 130 171 169 157 163 168 172 170 168 163 156 166 179 173 158 169 177 184 207 237 256 163 155 160 157 165 196 198 212 226 215 203 194 198 171 187 220 226 169 280 278 151 357 307 274 248 262 267 255 231 251 259 253 256 249 239 246 251 252 245 239
174 172 171 168 164 163 160 158 160 165 168 171 171 159 158 161 159 155 127 44 158 344 232 206 349 176 165 129 145 161 153 152 172 167 175 176 158 147 173 175 168 175 182 181 179 204 234 240 151 173 169 148 180 206 200 201 211 232 223 201 192 182 198 206 156 105 9 302 267 110 288 279 245 250 262 268 272 264 260 251 256 255 246 243 247 249 246 245
173 170 167 166 164 159 154 154 164 164 164 172 168 155 153 156 160 158 116 47 210 303 173 170 165 176 172 148 127 123 152 254 228 165 173 179 168 149 169 162 195 191 178 175 177 209 224 204 174 179 170 171 194 211 204 193 202 236 211 178 187 194 202 196 161 150 224 258 297 115 212 273 294 265 258 265 274 269 265 252 254 258 254 241 240 245 243 244
171 168 165 165 162 158 154 152 162 161 159 177 168 156 153 157 162 160 98 41 263 166 151 163 177 169 171 168 143 140 184 182 103 166 178 178 171 121 175 169 176 183 158 147 196 208 178 178 180 173 176 187 198 212 203 186 199 234 164 156 188 201 199 192 167 185 226 260 325 93 173 276 282 255 244 247 258 270 272 264 257 256 254 246 242 243 240 240
169 166 164 163 161 161 158 150 156 161 168 167 163 158 156 157 161 150 106 155 231 150 145 169 159 148 151 155 152 160 232 145 137 187 185 179 164 79 180 184 181 172 152 158 200 198 158 175 181 173 178 189 205 216 195 176 205 238 154 159 180 170 157 161 167 188 352 0 271 219 137 269 268 255 252 249 241 250 257 257 257 256 252 248 244 243 239 239
169 166 163 161 160 161 156 154 157 158 156 155 155 159 158 151 145 103 112 184 226 133 153 158 147 134 135 149 164 186 315 109 155 171 168 184 173 93 196 196 186 170 162 181 199 169 159 193 184 170 177 197 212 218 182 178 209 225 154 141 117 96 89 98 144 139 83 281 249 226 163 231 266 238 199 244 236 234 246 253 256 253 251 250 249 247 242 241
169 167 164 161 159 154 146 152 155 145 147 149 151 157 154 141 128 130 186 200 114 121 158 160 169 160 154 154 171 196 193 116 79 136 148 181 179 152 310 190 166 161 174 204 214 196 86 190 168 172 194 201 201 188 167 186 198 111 132 114 77 53 54 67 59 68 127 238 245 221 178 195 266 233 180 210 211 207 226 247 254 252 251 254 252 251 249 246
168 167 166 165 164 156 145 143 146 145 148 148 148 151 143 108 115 163 188 184 75 140 149 152 165 155 157 162 168 188 189 128 112 161 161 166 171 171 171 132 138 162 184 208 222 250 344 125 157 199 199 167 126 109 129 139 111 72 158 137 122 12 37 76 40 62 213 241 245 219 177 179 238 242 183 228 232 211 219 234 247 251 251 251 251 256 260 256
165 166 166 168 168 161 150 144 145 146 149 147 145 146 134 112 171 185 174 87 75 187 163 152 161 157 162 169 174 179 177 167 169 176 174 180 197 184 184 183 166 175 195 193 201 220 225 181 185 198 175 155 137 129 55 81 137 178 298 164 169 195 200 189 200 196 227 245 260 210 165 185 237 245 229 244 251 240 231 232 242 249 253 256 257 260 260 253
163 164 166 167 165 160 151 146 145 146 147 146 142 137 141 157 180 185 168 140 199 195 159 162 170 167 165 170 182 178 174 183 175 176 182 187 201 203 205 203 185 187 191 183 192 194 208 228 199 167 164 175 164 159 174 168 173 185 188 184 183 181 196 207 204 215 235 241 273 113 159 216 260 258 236 235 242 242 238 239 243 244 251 257 258 262 264 255
162 163 164 163 161 157 152 148 148 148 148 145 139 141 160 179 178 179 190 199 245 158 155 163 162 164 172 180 182 168 172 194 173 171 183 185 195 206 212 214 204 205 86 167 201 184 196 223 188 179 179 173 183 193 191 174 176 192 189 189 198 188 195 205 199 213 231 247 289 165 181 209 237 254 243 234 248 262 263 262 260 253 250 253 262 267 268 265
159 161 162 158 155 155 154 152 152 152 148 139 141 158 173 181 170 180 196 196 196 166 151 152 150 158 182 194 183 173 187 197 170 174 188 189 199 197 201 211 204 201 151 171 223 187 206 235 182 186 180 167 190 207 184 145 167 199 168 189 222 200 169 187 209 205 212 270 271 216 224 231 232 273 281 261 272 276 267 269 269 264 254 245 260 261 255 260
155 158 156 151 154 157 155 155 155 153 149 140 156 174 185 184 178 181 179 163 172 161 143 146 154 161 178 190 182 186 199 158 160 182 197 195 213 208 203 212 199 201 196 185 198 166 205 244 182 184 176 179 195 196 172 166 175 174 170 201 218 134 127 164 265 222 98 238 238 207 253 279 301 284 262 249 273 278 269 264 253 254 255 237 249 256 249 252
148 152 151 149 158 160 157 156 155 153 150 150 168 181 187 196 188 168 165 153 147 147 144 154 167 162 170 180 185 184 181 136 164 186 188 186 210 208 205 222 202 203 209 202 223 175 173 250 190 179 190 203 201 185 181 190 150 143 195 199 154 65 87 131 242 1 80 239 253 215 237 246 267 269 236 216 243 259 265 261 244 243 251 235 242 249 244 246
147 151 147 154 164 164 159 157 154 151 148 160 181 187 186 205 184 148 154 139 124 145 157 163 161 168 175 177 186 182 174 174 177 183 185 185 203 194 193 211 205 200 208 205 225 289 150 260 242 189 197 200 163 153 205 237 115 151 202 171 125 170 224 154 188 206 170 226 263 231 231 228 218 235 211 199 221 228 243 251 246 242 240 230 239 246 248 252
145 150 139 159 166 165 161 156 150 148 151 166 188 193 182 201 211 180 167 153 134 147 169 175 141 174 185 178 182 178 177 188 180 177 191 186 200 194 186 196 201 196 202 198 202 237 163 206 238 207 193 171 137 171 205 214 213 230 170 145 134 197 202 177 205 222 180 220 259 248 233 232 225 222 203 208 217 218 234 248 253 253 245 236 237 241 248 250
137 144 138 161 166 164 158 151 143 157 168 175 190 187 173 189 201 204 177 164 155 133 170 184 158 166 183 183 182 174 183 196 185 184 198 179 189 208 188 186 189 190 200 200 199 208 193 208 235 226 163 159 164 194 198 195 190 188 190 186 183 191 172 182 218 206 181 216 242 256 255 253 239 208 197 208 214 217 228 240 247 248 243 238 236 236 243 248
136 136 149 163 165 160 152 144 144 167 173 191 189 167 171 183 167 163 106 113 130 91 157 175 169 166 177 182 184 174 179 197 192 191 202 185 194 219 193 183 181 176 188 202 206 202 190 204 217 213 168 186 199 199 202 200 187 186 199 195 190 190 179 193 208 193 193 220 203 219 258 260 241 181 191 202 209 218 220 223 235 242 239 236 237 234 236 242
142 152 157 162 164 158 149 146 174 165 183 198 186 173 159 176 167 161 119 65 88 60 59 149 166 169 177 182 182 174 171 189 198 194 201 203 204 210 196 184 182 175 174 195 209 199 175 181 214 225 218 209 213 209 224 219 197 199 212 204 197 192 180 198 210 193 189 213 200 189 265 268 239 187 194 197 203 215 220 223 234 248 248 241 243 249 247 244
147 140 150 161 162 157 152 167 158 169 200 188 183 179 127 138 155 144 157 174 152 109 103 160 185 190 196 187 173 172 173 187 202 200 201 211 213 215 200 182 180 175 173 193 202 190 163 142 208 232 259 253 267 318 345 324 209 210 225 216 201 197 196 202 206 188 191 207 209 213 254 262 245 196 204 211 209 219 229 231 235 249 257 247 242 251 253 247
131 87 121 162 163 161 167 188 166 179 189 172 181 183 92 91 164 161 180 191 175 144 147 177 205 201 197 186 176 178 180 186 203 206 205 207 215 217 199 186 185 178 181 192 177 174 191 178 192 221 230 228 249 278 299 300 232 214 214 208 203 200 201 201 79 203 210 206 207 212 241 253 251 177 205 228 231 239 249 248 241 244 254 256 251 255 253 250
125 101 7 157 164 167 185 198 166 179 181 174 183 186 176 187 193 183 184 179 155 146 155 185 210 164 145 174 186 186 188 195 200 202 210 218 231 224 192 191 194 190 196 194 172 171 197 191 196 213 213 209 212 216 222 221 216 222 210 205 205 199 196 198 201 212 215 206 204 208 230 244 261 68 220 233 228 236 249 257 257 251 252 254 252 254 248 234
139 137 31 25 141 172 193 207 161 181 181 175 183 191 187 186 247 258 184 180 172 143 146 137 121 116 121 170 185 195 200 206 197 179 203 211 220 233 194 192 197 200 201 192 172 159 178 205 210 217 224 226 218 213 218 180 171 198 204 203 208 205 199 200 205 210 215 215 213 217 229 243 254 242 227 233 220 221 238 243 244 249 250 246 241 243 243 231
139 128 159 156 53 140 162 179 185 192 184 177 180 187 188 185 166 103 190 202 184 145 128 80 142 174 189 182 188 201 201 203 201 185 204 208 209 264 220 194 196 202 202 196 182 161 161 215 214 217 230 235 226 195 178 162 178 198 206 206 209 209 203 203 210 213 211 216 228 226 222 241 250 238 214 221 224 220 232 231 227 235 242 248 253 256 261 264
151 133 149 151 111 153 172 185 190 194 185 180 177 177 184 184 172 168 191 207 175 164 165 193 199 203 202 190 191 199 197 202 209 206 206 208 204 210 242 207 206 204 198 196 202 177 162 220 215 214 227 232 228 202 147 146 190 202 212 215 214 212 207 206 213 215 210 212 230 228 215 227 246 243 213 208 216 211 220 225 224 232 238 243 250 249 243 243
119 104 44 15 67 156 169 169 177 183 180 179 183 182 183 183 180 178 151 127 175 197 195 199 208 206 200 199 201 198 192 196 210 208 195 194 198 189 183 206 233 215 194 187 202 189 173 222 217 216 230 233 229 217 178 170 203 206 216 224 225 224 219 216 219 220 220 222 233 239 234 235 247 248 228 209 204 209 229 244 245 242 232 209 217 229 228 225
128 122 142 99 84 85 105 132 155 167 175 184 191 189 184 183 180 169 131 170 181 190 200 199 197 188 180 193 212 212 198 189 199 203 189 185 197 196 192 195 194 198 195 194 198 193 203 219 210 206 234 242 234 228 215 202 211 222 221 218 225 230 228 227 228 227 227 230 235 242 246 246 248 248 236 200 171 200 233 245 240 236 224 210 213 223 224 223
92 355 72 122 115 117 121 123 140 150 160 192 192 183 183 183 176 154 134 206 185 175 190 184 169 160 166 186 213 227 206 174 164 177 167 176 192 188 197 205 162 174 196 201 192 191 208 217 205 197 225 239 229 224 225 218 220 234 231 217 220 227 226 226 230 228 224 222 229 237 243 246 249 248 233 183 182 208 222 219 224 232 224 213 215 221 223 222
43 8 3 101 108 102 135 128 125 144 158 190 183 170 172 172 165 152 149 193 193 181 185 161 152 152 171 194 212 219 195 171 161 158 141 133 132 110 111 160 93 169 191 198 186 178 192 199 201 196 216 238 228 213 217 220 226 237 225 208 213 219 217 221 230 235 232 226 227 229 232 242 251 231 203 211 202 211 223 218 216 226 222 218 222 223 226 228
Height
737 740 743 748 752 755 758 761 764 767 769 772 774 776 778 780 781 784 786 787 790 792 794 796 798 800 801 803 804 805 806 808 809 810 808 806 807 810 810 812 814 815 816 817 817 818 820 821 822 822 822 823 825 826 826 827 827 830 838 847 850 851 846 839 839 838 835 833 833 833 834 835 835 835 832 832 833 834 835 835 835 834 832 831 829 828 829 832
734 736 740 744 748 752 755 758 761 764 767 770 772 775 777 778 780 782 784 786 789 791 793 795 797 798 800 802 803 805 806 807 809 808 804 804 807 809 810 811 813 814 815 816 817 818 820 821 822 823 824 826 827 827 828 828 829 833 842 848 846 845 838 833 833 833 833 832 831 833 834 834 834 834 833 835 837 836 836 835 836 835 832 831 829 829 830 831
732 733 736 740 744 749 753 756 758 762 765 768 771 773 776 777 779 781 783 785 787 790 792 793 796 798 800 802 803 804 806 808 810 806 801 804 806 808 810 811 812 813 814 815 816 818 819 820 821 824 826 828 829 829 829 829 830 834 840 845 841 836 833 831 832 831 832 831 830 832 834 834 833 833 833 836 839 838 836 834 835 835 832 832 831 830 831 832
730 730 733 736 740 746 750 753 756 759 762 766 768 771 774 776 778 780 782 784 786 789 791 793 795 797 800 801 803 804 805 810 807 800 800 803 805 807 809 810 811 813 814 815 816 818 819 820 821 824 827 831 831 830 830 830 831 834 837 839 836 833 833 830 830 830 831 832 830 832 834 834 833 833 834 836 840 840 835 830 829 829 829 832 833 832 832 832
727 728 730 734 737 742 747 751 754 757 760 763 766 770 772 775 777 779 781 783 785 787 789 792 794 796 798 800 804 803 807 812 803 796 799 801 803 806 808 810 811 812 814 815 817 819 819 820 822 825 829 832 833 832 832 830 831 834 835 834 832 833 833 829 829 829 830 831 830 832 833 833 833 833 834 835 837 835 829 825 824 824 825 828 830 831 832 833
724 725 728 731 734 738 743 748 752 755 758 761 765 768 771 773 776 778 780 782 784 786 788 790 792 795 797 800 803 803 807 808 798 795 798 799 801 804 807 809 810 812 814 815 817 820 820 820 823 828 830 833 835 833 832 831 831 834 835 833 831 832 832 828 829 829 829 829 830 831 832 832 833 833 834 834 831 827 823 822 822 823 824 825 827 830 831 832
721 723 726 728 731 735 740 745 750 753 756 759 763 766 769 772 774 777 779 781 783 784 787 789 791 794 796 801 804 805 807 802 794 796 797 797 800 802 806 808 809 812 813 814 817 819 820 821 824 827 830 834 835 834 833 832 832 834 835 832 831 832 831 829 830 830 829 828 829 831 831 832 833 833 834 833 827 823 823 822 822 823 825 826 827 828 828 829
719 721 723 726 729 732 737 743 747 751 754 757 761 764 768 770 773 776 778 780 782 784 786 788 791 792 796 799 802 807 806 798 794 796 796 797 799 800 805 806 808 811 812 814 815 816 818 821 824 826 830 834 834 834 833 833 834 834 834 832 832 832 830 830 830 831 829 829 831 831 831 831 832 833 834 830 825 822 823 823 823 824 826 827 827 827 827 828
715 718 720 724 727 730 735 740 745 749 753 756 759 762 766 769 772 774 777 779 781 783 785 787 789 791 794 796 800 806 800 793 794 795 795 797 797 799 802 804 807 810 811 813 814 815 817 820 823 823 827 831 832 833 832 835 836 832 832 832 831 830 829 830 830 830 830 830 830 830 831 830 831 833 831 825 822 822 823 823 823 825 826 827 826 826 826 827
712 716 717 721 725 728 732 737 743 747 751 755 758 761 764 768 771 773 775 778 780 782 784 786 788 790 793 793 799 803 793 790 795 794 795 796 796 799 802 804 806 808 810 813 814 815 815 818 820 820 823 828 830 832 832 834 833 830 831 831 830 831 830 830 830 830 830 830 829 830 831 829 831 834 830 822 820 822 823 823 824 824 825 825 825 825 825 826
709 713 714 718 723 726 729 734 741 746 750 753 756 759 763 767 769 772 774 777 779 781 783 785 787 789 791 792 797 797 790 791 795 793 795 796 797 799 802 805 806 807 810 812 814 814 815 816 817 819 824 826 830 833 832 831 830 829 831 832 832 832 832 832 831 831 831 830 829 830 831 829 831 832 827 821 819 821 822 823 824 824 824 824 823 823 824 824
705 709 711 715 721 724 727 732 738 744 748 751 754 758 762 766 769 771 774 777 779 781 783 785 787 788 790 792 793 791 790 791 793 793 795 796 798 800 802 806 808 809 809 811 815 815 816 816 816 820 824 825 830 834 831 827 830 830 832 835 835 833 834 833 831 831 831 831 828 830 834 832 829 826 822 819 818 820 822 822 823 823 823 823 822 822 822 821
701 706 708 713 719 723 725 729 735 741 746 750 753 757 762 765 768 771 773 776 779 781 783 784 786 788 790 792 790 789 790 790 791 792 794 797 800 801 803 807 810 811 810 812 815 816 817 817 817 822 825 826 831 832 827 827 831 833 834 836 838 841 839 831 831 832 831 832 827 831 842 835 823 820 819 818 817 818 821 821 821 822 823 823 822 822 820 820
698 704 706 710 716 721 724 727 733 739 744 748 751 756 761 765 768 771 773 776 778 780 782 784 786 788 790 790 788 789 790 790 791 791 793 796 799 802 804 808 812 812 811 812 815 816 817 818 819 823 826 828 829 829 829 832 833 834 837 839 842 847 842 830 831 833 832 833 825 832 847 835 819 818 817 816 816 817 818 818 820 821 822 822 821 821 819 818
695 701 705 708 714 720 723 726 731 736 742 746 750 756 761 765 768 770 773 776 778 780 782 784 785 788 792 791 787 788 790 790 791 791 792 794 797 801 805 807 812 813 812 813 815 817 818 819 822 825 827 829 829 831 836 837 836 835 840 845 845 846 842 831 831 832 831 833 827 833 846 833 819 818 815 814 817 817 816 816 818 819 819 820 820 820 818 816
692 698 702 706 712 718 722 725 729 734 740 744 749 756 761 765 768 771 773 775 778 779 781 784 785 787 792 789 785 786 788 789 790 791 793 794 794 798 804 808 811 813 813 814 816 818 819 820 824 827 829 831 832 835 840 844 842 838 840 846 846 846 845 837 833 831 827 831 831 834 839 830 821 817 814 815 817 817 818 816 816 817 817 817 818 817 816 815
689 695 699 704 710 716 720 724 728 733 737 742 749 756 761 764 768 771 773 775 777 779 781 783 785 788 789 786 785 785 786 787 788 790 792 795 795 795 801 809 813 815 814 814 817 818 820 823 828 830 830 832 834 835 844 849 846 843 843 845 845 844 846 841 836 832 829 832 832 833 835 826 819 817 815 816 817 817 817 815 814 813 814 815 815 816 815 814
686 692 697 703 708 714 719 722 726 731 736 742 748 755 761 764 767 769 772 774 776 780 784 785 787 791 788 783 783 782 782 785 786 789 792 795 798 797 800 806 811 815 817 818 819 821 824 827 831 834 834 835 835 834 839 840 838 843 846 846 845 843 843 842 834 830 831 834 835 835 837 827 817 818 817 815 817 818 816 814 813 811 811 813 813 814 813 812
684 690 695 701 707 712 717 721 725 730 735 742 748 755 761 764 766 769 771 773 774 778 782 781 782 783 779 776 778 779 781 783 786 789 791 794 798 801 802 804 808 813 821 826 825 825 827 831 834 835 834 833 832 830 830 829 829 836 842 841 842 842 841 839 833 829 830 835 837 837 837 827 817 818 818 815 816 817 816 814 813 811 810 811 811 810 809 808
682 688 693 699 705 711 716 720 724 728 733 740 746 753 758 761 766 771 772 772 771 770 771 771 772 774 774 774 775 779 781 784 787 789 791 793 796 801 805 807 810 815 822 828 829 827 828 832 832 828 826 825 827 828 827 827 827 832 838 840 840 840 839 836 831 829 829 833 835 834 834 829 818 816 816 815 817 817 814 812 811 811 809 808 808 807 805 803
680 687 692 696 703 709 714 719 723 727 731 737 742 747 751 751 755 760 764 770 770 767 769 769 770 773 775 775 775 777 781 785 788 789 792 794 795 801 807 808 812 817 819 824 828 828 829 830 826 821 820 821 825 828 828 829 828 830 836 839 840 840 837 832 830 830 830 833 833 830 833 830 820 816 814 814 817 814 809 809 809 807 806 804 803 802 801 799
679 687 691 695 701 707 712 718 722 726 731 736 740 743 744 744 745 746 751 764 769 768 771 770 772 775 775 776 776 776 780 786 789 790 792 794 795 799 805 808 810 812 814 820 829 831 830 827 820 818 819 822 826 828 830 831 830 832 835 839 841 839 837 834 830 830 832 834 832 829 833 830 819 814 812 813 814 807 803 804 804 803 803 801 797 797 797 797
677 685 691 695 700 706 711 717 721 725 730 733 736 739 741 743 744 745 749 762 770 771 772 772 773 776 776 777 777 777 780 784 787 789 789 793 796 796 802 807 808 810 815 821 828 833 831 822 815 817 819 823 829 831 832 834 833 834 836 840 840 838 839 837 831 831 833 834 832 831 833 829 820 814 810 808 807 802 799 800 800 799 798 795 792 792 793 793
675 683 691 694 699 705 710 715 721 725 727 731 734 737 740 743 745 746 751 764 772 772 772 773 774 775 776 777 776 778 781 782 783 786 788 790 795 797 799 803 806 813 816 816 821 829 827 817 811 815 819 823 832 835 835 836 836 834 834 837 837 836 836 833 831 831 832 833 832 833 834 826 817 814 806 800 803 802 798 798 798 795 793 791 791 789 788 787
674 682 690 694 698 702 708 714 719 723 726 731 734 737 740 743 745 745 750 765 773 773 774 773 774 774 774 776 778 779 782 783 782 784 786 787 791 796 798 800 804 812 814 813 819 825 823 817 812 815 821 826 832 835 834 834 837 836 831 830 832 833 832 831 832 832 834 836 832 834 840 826 812 813 807 799 803 802 798 799 795 790 788 790 789 786 783 782
673 681 687 694 697 700 706 712 716 721 726 731 733 737 740 741 746 744 751 771 776 774 777 774 772 772 771 775 778 781 786 784 781 782 784 787 788 791 797 801 802 806 809 813 819 820 817 816 814 817 824 827 831 833 830 831 838 837 827 824 829 829 830 832 832 833 838 840 834 835 841 831 815 810 805 801 803 799 796 797 792 786 786 786 784 780 779 778
672 679 685 692 695 696 700 705 713 719 723 728 730 736 739 740 745 741 754 785 781 767 774 775 772 770 769 774 776 780 786 782 781 784 782 785 787 789 797 800 801 802 804 813 819 811 808 814 816 818 823 827 830 828 823 824 834 833 819 819 827 828 830 833 833 833 836 837 837 836 840 840 826 810 801 799 800 797 793 791 787 784 783 781 779 776 775 774
670 677 683 690 693 695 696 700 709 714 717 724 727 735 738 739 745 742 760 791 780 760 768 771 770 769 769 773 774 776 780 777 780 784 781 784 787 791 797 796 795 798 799 808 813 802 801 810 812 813 821 825 822 815 814 821 828 825 817 819 824 827 832 835 834 835 837 840 840 836 840 844 827 807 803 802 800 797 790 783 779 776 775 773 772 771 770 769
669 675 681 687 693 697 698 701 707 712 717 722 727 735 737 739 743 746 765 781 764 754 760 763 767 770 772 775 775 775 776 776 780 782 782 786 786 789 794 791 791 796 799 800 800 799 800 801 801 807 815 816 810 807 811 818 822 820 819 821 824 828 834 839 838 836 840 844 840 834 839 841 819 798 800 805 803 798 789 782 776 770 768 766 765 765 765 765
667 673 678 684 690 695 700 705 710 714 718 723 729 733 736 741 744 757 777 769 749 751 758 759 764 767 771 776 777 777 776 778 781 781 784 787 786 789 791 790 791 798 803 801 798 798 797 796 798 804 807 804 804 809 813 815 820 822 823 826 830 834 835 839 842 840 842 842 832 825 830 837 821 795 791 794 791 787 784 780 772 766 765 764 762 761 761 762
666 672 677 682 687 691 696 704 710 714 718 723 730 733 738 747 751 767 778 754 740 754 759 760 764 763 768 773 775 778 778 781 783 782 784 786 788 791 790 791 796 802 807 807 804 802 799 801 801 798 797 798 804 812 816 817 822 827 828 827 834 841 839 842 846 846 846 836 820 814 821 834 825 796 784 784 780 779 778 773 767 762 762 761 760 760 759 760
665 671 678 682 687 691 695 702 707 712 717 722 728 733 741 755 762 765 759 741 743 757 757 760 763 763 767 770 772 775 777 781 783 781 781 783 786 787 785 787 791 796 803 805 805 805 804 802 798 795 795 796 803 815 822 823 825 830 833 831 837 845 844 844 844 843 841 827 815 815 821 826 811 784 778 780 776 776 773 768 764 761 760 759 759 759 758 759
666 672 679 684 688 693 696 702 707 712 717 721 727 733 742 759 763 752 742 740 745 748 749 755 759 761 765 767 770 773 775 779 780 780 780 781 784 784 782 781 781 785 792 797 800 804 807 803 799 800 798 794 799 811 820 821 821 826 828 827 832 838 841 841 840 840 836 822 817 821 822 818 800 777 773 772 767 766 764 764 763 761 760 758 758 758 757 757
668 674 680 686 690 694 697 702 707 711 716 721 728 735 746 757 752 741 741 744 745 744 744 749 756 762 765 764 765 768 774 778 777 778 779 780 783 783 783 783 782 785 789 794 796 798 801 800 796 795 792 789 791 793 794 800 809 814 813 817 821 822 826 829 829 831 828 822 822 825 821 812 795 779 772 768 764 762 761 760 760 761 760 759 758 758 756 754
669 675 681 686 692 696 698 702 707 710 715 722 730 738 746 746 739 739 743 742 745 747 744 747 756 765 767 766 764 764 767 774 776 777 778 778 779 778 779 780 781 784 788 793 794 793 793 789 783 780 779 782 786 784 785 796 810 812 810 817 817 808 809 818 822 820 818 823 824 820 812 796 780 772 769 768 766 762 761 760 759 758 756 758 759 755 753 752
670 677 681 686 692 696 698 702 707 711 714 722 734 741 738 729 725 731 732 730 737 742 744 751 757 762 768 768 769 768 765 769 776 778 777 778 777 775 775 775 775 778 780 783 787 790 793 786 779 780 781 780 779 779 784 791 801 810 813 813 808 801 802 813 823 820 820 826 818 808 804 793 781 770 759 761 762 757 756 755 754 752 751 756 755 750 750 748
669 676 681 686 691 695 697 700 705 711 715 722 733 736 729 721 719 723 722 724 733 735 741 751 753 755 762 766 768 769 767 769 774 776 777 779 776 772 775 773 771 773 774 775 778 779 784 784 779 782 784 779 773 778 784 783 787 802 808 801 801 808 807 810 821 825 828 829 814 801 799 795 793 778 758 759 762 755 749 744 743 746 748 750 747 743 744 742
669 675 680 685 691 694 697 700 704 710 717 726 731 728 723 722 721 720 720 724 730 733 738 745 747 749 755 760 763 764 765 768 772 774 774 776 770 764 768 771 768 769 769 773 779 777 778 784 782 779 779 777 778 787 794 792 789 794 794 790 799 813 813 812 818 820 823 823 808 796 794 790 786 772 758 760 761 756 748 738 738 741 742 743 740 737 739 739
670 676 681 685 690 695 698 701 706 712 720 727 729 724 722 723 722 719 719 722 727 733 737 739 742 746 750 753 756 759 762 761 765 770 769 770 768 758 758 764 764 766 765 769 777 777 778 783 782 777 776 778 783 791 795 796 795 793 791 794 800 804 805 806 806 803 808 812 802 793 790 780 766 754 751 754 755 755 751 742 740 740 737 737 736 734 734 734
670 678 683 684 689 695 698 703 710 716 720 722 722 721 720 720 720 720 720 721 725 732 734 733 737 744 746 748 750 755 759 757 758 765 764 762 763 757 755 758 761 764 765 767 772 775 779 783 781 780 781 781 784 784 780 781 789 793 793 795 798 800 802 802 800 795 798 805 802 797 787 764 747 745 746 746 746 746 747 744 740 736 733 733 732 731 730 729
671 679 683 685 690 694 699 707 712 715 719 719 718 721 721 719 719 722 724 724 725 729 731 730 733 738 741 745 748 750 756 758 757 761 761 759 758 756 752 752 755 761 766 771 772 772 778 782 780 781 781 779 776 769 762 763 771 779 780 780 783 788 794 800 800 794 792 795 793 793 782 749 734 741 740 737 738 735 735 738 732 728 728 730 731 730 728 727
674 680 682 684 689 692 699 708 712 714 717 717 714 717 718 717 717 722 726 727 728 731 732 730 732 735 737 740 743 746 752 757 757 756 756 755 751 748 745 745 748 753 760 767 767 765 769 776 777 776 774 773 769 766 765 764 764 769 773 772 773 778 785 790 793 789 789 789 783 788 783 746 727 737 735 729 731 727 726 729 727 725 725 727 729 726 727 728
675 680 682 684 688 692 699 706 710 713 714 711 710 713 715 715 718 723 727 728 730 733 732 730 732 733 733 735 738 744 749 752 753 752 751 751 748 742 742 744 746 751 756 761 764 765 769 774 777 776 772 770 770 771 772 770 769 771 774 773 772 772 772 773 775 775 779 782 779 788 787 748 722 731 733 727 727 726 723 723 723 724 722 724 726 724 724 726
676 681 685 687 690 694 697 699 704 710 711 709 712 715 717 717 718 720 724 725 728 731 731 730 731 730 730 732 734 738 743 745 748 748 747 747 744 740 742 744 745 749 752 752 755 761 765 768 772 775 773 772 773 775 776 776 775 771 766 767 765 763 766 769 771 772 774 773 772 782 779 744 719 726 733 730 729 729 728 726 727 726 722 722 725 724 724 725
676 682 689 690 691 694 695 694 697 703 707 709 712 714 715 718 718 716 718 722 726 728 728 730 732 730 732 735 734 735 737 738 741 744 746 746 742 740 743 744 744 744 744 743 746 752 757 759 762 764 764 763 760 760 760 763 769 767 761 761 760 758 762 765 767 771 770 764 762 767 760 734 719 728 733 731 731 730 727 728 729 728 725 725 724 722 721 721
669 678 689 693 692 693 694 695 696 698 702 707 710 711 712 717 720 718 718 722 725 727 726 729 732 733 735 736 736 737 737 735 737 741 743 744 741 739 741 741 741 741 740 740 744 749 755 756 755 754 751 745 742 743 744 744 754 762 759 757 755 752 751 754 760 763 758 756 756 752 744 732 723 726 729 728 728 728 724 724 726 725 723 722 722 719 718 718
665 671 682 687 690 694 697 699 697 695 697 701 703 705 709 713 719 721 721 721 723 725 727 730 731 730 732 733 733 735 735 735 738 740 740 738 737 739 740 739 740 739 739 742 742 745 751 751 750 752 747 738 738 744 745 742 746 752 751 749 749 748 749 753 755 749 745 754 754 741 739 739 723 715 722 724 723 725 722 721 721 719 717 717 719 720 719 719
667 669 675 676 679 685 689 691 692 691 693 697 698 700 706 711 716 720 721 722 723 723 724 730 731 728 727 727 727 730 734 736 738 738 738 737 737 740 741 741 740 736 738 746 745 745 751 747 741 744 743 737 739 745 746 743 743 745 746 746 746 746 748 748 744 737 736 745 741 728 732 735 716 708 717 717 715 718 716 714 716 714 713 716 718 719 718 717
669 671 676 676 677 680 678 679 685 688 690 694 697 698 701 707 712 714 717 723 726 722 718 721 726 726 725 725 724 724 728 732 733 732 732 734 735 737 739 741 740 737 738 745 745 745 750 746 739 742 743 737 737 743 746 745 744 745 746 747 746 748 749 746 740 734 732 734 731 725 729 729 713 706 710 709 712 716 714 713 716 715 714 715 715 716 715 713
668 670 674 676 680 684 683 682 686 691 694 694 695 696 696 700 706 710 714 718 719 720 717 713 718 723 724 727 726 718 714 717 719 721 724 728 730 731 732 732 733 737 739 740 740 742 743 738 735 742 747 741 737 741 746 746 744 742 742 742 743 747 750 750 746 740 738 739 733 727 729 725 708 698 704 709 712 715 714 715 715 715 714 713 712 712 710 708
668 670 670 671 679 686 686 686 688 691 696 696 694 693 693 695 700 706 712 713 710 713 714 710 715 723 724 727 727 719 714 714 715 717 721 724 726 727 729 728 729 734 736 735 737 740 740 735 732 739 744 737 733 737 741 744 747 744 740 741 742 742 745 747 743 737 735 736 733 732 732 719 699 694 704 710 710 710 711 712 712 712 712 711 709 708 706 705
669 670 669 669 678 686 686 687 689 690 694 696 694 692 691 693 697 701 707 712 710 709 710 708 712 718 722 726 723 717 718 719 718 721 725 726 728 731 734 736 733 731 730 732 735 737 738 735 732 737 739 730 726 732 737 743 745 737 732 734 735 734 736 739 738 732 728 728 730 730 720 704 696 701 706 707 707 706 705 706 706 706 707 708 707 705 705 704